1998-067HV

Last updated on Fri May 20 2016 09:36:28 GMT+0000 (Coordinated Universal Time)

1 41475U 98067HV 16141.19446554 .00040325 00000-0 58068-3 0 9996 2 41475 51.6422 197.6564 0002890 120.8785 341.7155 15.55621391 577

Satellite not in orbit